| time (UTC) | temp F | wind direction | speed MPH | gust MPH | rain 1hr in | rain 24hr in | rain mn in | humidity % | barometer mb |
| 20260902092600 | 62 | 77 | 0.0 | 2.0 | 0.00 | 0.45 | 0.00 | 93 | 1021.4 |
| 20260902092100 | 62 | 77 | 0.0 | 2.0 | 0.00 | 0.45 | 0.00 | 93 | 1021.6 |
| 20260902091602 | 62 | 77 | 0.0 | 2.0 | 0.00 | 0.45 | 0.00 | 93 | 1021.4 |
| 20260902091059 | 62 | 77 | 0.0 | 0.0 | 0.00 | 0.45 | 0.00 | 93 | 1021.3 |
| 20260902090559 | 62 | 77 | 0.0 | 0.0 | 0.00 | 0.45 | 0.00 | 93 | 1021.4 |
| 20260902090059 | 62 | 77 | 0.0 | 1.0 | 0.00 | 0.45 | 0.00 | 93 | 1021.5 |
| 20260902085558 | 62 | 77 | 0.0 | 2.0 | 0.00 | 0.45 | 0.00 | 93 | 1021.4 |
| 20260902085059 | 62 | 77 | 0.0 | 4.0 | 0.00 | 0.45 | 0.00 | 93 | 1021.3 |
| 20260902084604 | 62 | 77 | 1.0 | 4.0 | 0.00 | 0.45 | 0.00 | 93 | 1021.2 |
| 20260902084058 | 62 | 77 | 1.0 | 4.0 | 0.00 | 0.45 | 0.00 | 93 | 1021.0 |
| 20260902083558 | 62 | 77 | 1.0 | 2.0 | 0.00 | 0.45 | 0.00 | 93 | 1021.2 |
| 20260902083107 | 62 | 77 | 0.0 | 2.0 | 0.00 | 0.45 | 0.00 | 93 | 1021.3 |
| 20260902082600 | 62 | 77 | 0.0 | 0.0 | 0.00 | 0.45 | 0.00 | 93 | 1021.4 |
| 20260902082057 | 62 | 77 | 0.0 | 0.0 | 0.00 | 0.45 | 0.00 | 93 | 1021.4 |
| 20260902081556 | 62 | 77 | 0.0 | 0.0 | 0.00 | 0.45 | 0.00 | 93 | 1021.5 |
| 20260902081056 | 62 | 77 | 0.0 | 0.0 | 0.00 | 0.45 | 0.00 | 93 | 1021.5 |
| 20260902080556 | 62 | 77 | 0.0 | 1.0 | 0.00 | 0.45 | 0.00 | 93 | 1021.5 |
| 20260902080112 | 62 | 77 | 0.0 | 2.0 | 0.00 | 0.45 | 0.00 | 93 | 1021.5 |
| 20260902075556 | 62 | 77 | 0.0 | 2.0 | 0.00 | 0.45 | 0.00 | 93 | 1021.6 |
| 20260902075055 | 62 | 77 | 0.0 | 0.0 | 0.00 | 0.45 | 0.00 | 93 | 1021.6 |
| 20260902074555 | 62 | 77 | 0.0 | 1.0 | 0.00 | 0.45 | 0.00 | 93 | 1021.6 |
| 20260902074056 | 62 | 77 | 0.0 | 1.0 | 0.00 | 0.45 | 0.00 | 93 | 1021.5 |
| 20260902073555 | 62 | 77 | 0.0 | 1.0 | 0.00 | 0.45 | 0.00 | 93 | 1021.6 |
| 20260902073055 | 62 | 77 | 0.0 | 1.0 | 0.00 | 0.45 | 0.00 | 93 | 1021.6 |
| 20260902072555 | 62 | 77 | 0.0 | 1.0 | 0.00 | 0.45 | 0.00 | 93 | 1021.6 |
| 20260902072053 | 62 | 77 | 0.0 | 1.0 | 0.00 | 0.45 | 0.00 | 93 | 1021.6 |
| 20260902071553 | 62 | 77 | 0.0 | 1.0 | 0.00 | 0.45 | 0.00 | 93 | 1021.4 |
| 20260902071056 | 62 | 77 | 0.0 | 3.0 | 0.00 | 0.45 | 0.00 | 93 | 1021.4 |
| 20260902070552 | 62 | 77 | 0.0 | 3.0 | 0.00 | 0.45 | 0.00 | 93 | 1021.3 |
| 20260902070052 | 62 | 77 | 0.0 | 0.0 | 0.00 | 0.45 | 0.00 | 93 | 1021.2 |
| 20260902065552 | 62 | 77 | 0.0 | 0.0 | 0.00 | 0.45 | 0.00 | 93 | 1021.3 |
| 20260902065052 | 62 | 77 | 0.0 | 0.0 | 0.00 | 0.45 | 0.00 | 93 | 1021.4 |
| 20260902064554 | 62 | 77 | 0.0 | 0.0 | 0.00 | 0.45 | 0.00 | 93 | 1021.3 |
| 20260902064051 | 62 | 77 | 0.0 | 0.0 | 0.00 | 0.45 | 0.00 | 93 | 1021.4 |
| 20260902063551 | 62 | 77 | 0.0 | 0.0 | 0.00 | 0.45 | 0.00 | 93 | 1021.3 |
| 20260902063051 | 62 | 77 | 0.0 | 0.0 | 0.00 | 0.45 | 0.00 | 93 | 1021.3 |
| 20260902062551 | 62 | 77 | 0.0 | 0.0 | 0.00 | 0.45 | 0.00 | 93 | 1021.3 |
| 20260902062052 | 62 | 77 | 0.0 | 0.0 | 0.00 | 0.45 | 0.00 | 93 | 1021.3 |
| 20260902061610 | 62 | 77 | 0.0 | 0.0 | 0.00 | 0.45 | 0.00 | 93 | 1021.3 |
| 20260902061052 | 62 | 77 | 0.0 | 1.0 | 0.00 | 0.45 | 0.00 | 93 | 1021.3 |
| 20260902060550 | 62 | 77 | 0.0 | 1.0 | 0.00 | 0.45 | 0.00 | 93 | 1021.3 |
| 20260902060052 | 62 | 77 | 0.0 | 1.0 | 0.00 | 0.45 | 0.00 | 93 | 1021.3 |
| 20260902055549 | 62 | 77 | 0.0 | 1.0 | 0.00 | 0.45 | 0.00 | 93 | 1021.4 |
| 20260902055049 | 62 | 77 | 0.0 | 0.0 | 0.00 | 0.45 | 0.00 | 93 | 1021.4 |
| 20260902054551 | 62 | 77 | 0.0 | 0.0 | 0.00 | 0.45 | 0.00 | 93 | 1021.4 |
| 20260902054052 | 62 | 77 | 0.0 | 0.0 | 0.00 | 0.45 | 0.00 | 93 | 1021.4 |
| 20260902053549 | 62 | 77 | 0.0 | 0.0 | 0.00 | 0.45 | 0.00 | 93 | 1021.4 |
| 20260902053047 | 62 | 77 | 0.0 | 0.0 | 0.00 | 0.45 | 0.00 | 93 | 1021.2 |
| 20260902052547 | 62 | 77 | 0.0 | 0.0 | 0.00 | 0.45 | 0.00 | 93 | 1021.1 |
| 20260902052045 | 62 | 77 | 0.0 | 0.0 | 0.00 | 0.45 | 0.00 | 93 | 1021.1 |
| 20260902051547 | 62 | 77 | 0.0 | 0.0 | 0.00 | 0.45 | 0.00 | 93 | 1021.1 |
| 20260902051044 | 62 | 77 | 0.0 | 0.0 | 0.00 | 0.45 | 0.00 | 93 | 1020.8 |
| 20260902050544 | 62 | 77 | 0.0 | 0.0 | 0.00 | 0.45 | 0.00 | 93 | 1020.8 |
| 20260902050043 | 62 | 77 | 0.0 | 0.0 | 0.00 | 0.45 | 0.00 | 93 | 1020.7 |
| 20260902045542 | 62 | 77 | 0.0 | 0.0 | 0.00 | 0.45 | 0.00 | 93 | 1020.7 |
| 20260902045041 | 62 | 77 | 0.0 | 0.0 | 0.00 | 0.45 | 0.00 | 93 | 1020.6 |
| 20260902044540 | 62 | 77 | 0.0 | 0.0 | 0.00 | 0.45 | 0.00 | 93 | 1020.4 |
| 20260902044040 | 62 | 77 | 0.0 | 0.0 | 0.00 | 0.45 | 0.00 | 93 | 1020.4 |
| 20260902043539 | 62 | 77 | 0.0 | 0.0 | 0.00 | 0.45 | 0.00 | 93 | 1020.3 |
| 20260902043047 | 62 | 77 | 0.0 | 0.0 | 0.00 | 0.45 | 0.00 | 93 | 1020.3 |
| 20260902042538 | 62 | 77 | 0.0 | 0.0 | 0.00 | 0.45 | 0.00 | 93 | 1020.4 |
| 20260902042039 | 62 | 77 | 0.0 | 0.0 | 0.00 | 0.45 | 0.00 | 92 | 1020.3 |
| 20260902041538 | 62 | 77 | 0.0 | 0.0 | 0.00 | 0.45 | 0.00 | 92 | 1020.3 |
| 20260902041036 | 62 | 77 | 0.0 | 0.0 | 0.00 | 0.45 | 0.00 | 92 | 1020.2 |
| 20260902040539 | 62 | 77 | 0.0 | 0.0 | 0.00 | 0.45 | 0.00 | 92 | 1020.2 |
| 20260902040036 | 62 | 77 | 0.0 | 0.0 | 0.00 | 0.45 | 0.00 | 92 | 1020.1 |
| 20260902035538 | 62 | 77 | 0.0 | 0.0 | 0.00 | 0.45 | 0.45 | 92 | 1020.0 |
| 20260902035035 | 62 | 77 | 0.0 | 0.0 | 0.00 | 0.45 | 0.45 | 92 | 1019.9 |
| 20260902034535 | 62 | 77 | 0.0 | 0.0 | 0.00 | 0.45 | 0.45 | 92 | 1019.7 |
| 20260902034038 | 62 | 77 | 0.0 | 0.0 | 0.00 | 0.45 | 0.45 | 92 | 1019.7 |
| 20260902033534 | 62 | 77 | 0.0 | 0.0 | 0.00 | 0.45 | 0.45 | 92 | 1019.7 |
| 20260902033034 | 62 | 77 | 0.0 | 0.0 | 0.00 | 0.45 | 0.45 | 92 | 1019.7 |
| 20260902032535 | 62 | 77 | 0.0 | 1.0 | 0.00 | 0.45 | 0.45 | 92 | 1019.8 |
| 20260902032033 | 62 | 77 | 0.0 | 1.0 | 0.00 | 0.45 | 0.45 | 92 | 1019.8 |
| 20260902031534 | 62 | 77 | 0.0 | 0.0 | 0.00 | 0.45 | 0.45 | 92 | 1019.8 |
| 20260902031035 | 62 | 77 | 0.0 | 0.0 | 0.00 | 0.45 | 0.45 | 92 | 1019.7 |
| 20260902030537 | 62 | 77 | 0.0 | 0.0 | 0.00 | 0.45 | 0.45 | 92 | 1019.8 |
| 20260902030033 | 62 | 77 | 0.0 | 0.0 | 0.00 | 0.45 | 0.45 | 92 | 1019.9 |
| 20260902025533 | 62 | 77 | 0.0 | 0.0 | 0.00 | 0.45 | 0.45 | 92 | 1019.9 |
| 20260902025035 | 62 | 77 | 0.0 | 0.0 | 0.00 | 0.45 | 0.45 | 92 | 1019.9 |
| 20260902024534 | 62 | 77 | 0.0 | 0.0 | 0.00 | 0.45 | 0.45 | 92 | 1020.0 |
| 20260902024032 | 62 | 77 | 0.0 | 0.0 | 0.00 | 0.45 | 0.45 | 92 | 1020.0 |
| 20260902023532 | 62 | 77 | 0.0 | 0.0 | 0.00 | 0.45 | 0.45 | 92 | 1019.9 |
| 20260902023032 | 62 | 77 | 0.0 | 0.0 | 0.00 | 0.45 | 0.45 | 92 | 1020.0 |
| 20260902022532 | 62 | 77 | 0.0 | 0.0 | 0.00 | 0.45 | 0.45 | 92 | 1019.9 |
| 20260902022033 | 62 | 77 | 0.0 | 0.0 | 0.00 | 0.45 | 0.45 | 92 | 1019.9 |
| 20260902021532 | 62 | 77 | 0.0 | 0.0 | 0.00 | 0.45 | 0.45 | 92 | 1019.9 |
| 20260902021034 | 62 | 77 | 0.0 | 0.0 | 0.00 | 0.45 | 0.45 | 92 | 1020.1 |
| 20260902020532 | 62 | 77 | 0.0 | 0.0 | 0.00 | 0.45 | 0.45 | 92 | 1020.0 |
| 20260902020032 | 62 | 77 | 0.0 | 0.0 | 0.00 | 0.45 | 0.45 | 92 | 1020.1 |
| 20260902015532 | 62 | 77 | 0.0 | 0.0 | 0.00 | 0.45 | 0.45 | 92 | 1020.1 |
| 20260902015031 | 63 | 77 | 0.0 | 0.0 | 0.00 | 0.45 | 0.45 | 92 | 1020.1 |
| 20260902014535 | 63 | 76 | 0.0 | 0.0 | 0.00 | 0.45 | 0.45 | 92 | 1020.0 |
| 20260902014030 | 63 | 77 | 0.0 | 0.0 | 0.00 | 0.45 | 0.45 | 92 | 1020.0 |
| 20260902013530 | 63 | 77 | 0.0 | 0.0 | 0.00 | 0.45 | 0.45 | 92 | 1019.9 |
| 20260902013031 | 63 | 77 | 0.0 | 0.0 | 0.00 | 0.45 | 0.45 | 92 | 1019.9 |
| 20260902012531 | 63 | 77 | 0.0 | 0.0 | 0.00 | 0.45 | 0.45 | 92 | 1020.0 |
| 20260902012030 | 63 | 77 | 0.0 | 0.0 | 0.00 | 0.45 | 0.45 | 92 | 1020.0 |
| 20260902011530 | 63 | 77 | 0.0 | 0.0 | 0.00 | 0.45 | 0.45 | 92 | 1020.0 |
| 20260902011029 | 63 | 77 | 0.0 | 0.0 | 0.00 | 0.45 | 0.45 | 91 | 1020.0 |
| 20260902010529 | 63 | 77 | 0.0 | 0.0 | 0.00 | 0.45 | 0.45 | 91 | 1019.8 |
| 20260902010041 | 63 | 77 | 0.0 | 0.0 | 0.00 | 0.45 | 0.45 | 91 | 1019.8 |
| 20260902005528 | 63 | 77 | 0.0 | 0.0 | 0.00 | 0.45 | 0.45 | 91 | 1019.8 |
| 20260902005027 | 63 | 77 | 0.0 | 0.0 | 0.00 | 0.45 | 0.45 | 91 | 1019.7 |
| 20260902004528 | 63 | 77 | 0.0 | 0.0 | 0.00 | 0.45 | 0.45 | 91 | 1019.6 |
| 20260902004027 | 63 | 77 | 0.0 | 0.0 | 0.00 | 0.45 | 0.45 | 91 | 1019.6 |
| 20260902003527 | 63 | 77 | 0.0 | 0.0 | 0.00 | 0.45 | 0.45 | 91 | 1019.6 |
| 20260902003027 | 63 | 77 | 0.0 | 0.0 | 0.00 | 0.45 | 0.45 | 91 | 1019.6 |
| 20260902002525 | 63 | 77 | 0.0 | 0.0 | 0.00 | 0.45 | 0.45 | 91 | 1019.5 |
| 20260902002025 | 63 | 77 | 0.0 | 0.0 | 0.00 | 0.45 | 0.45 | 91 | 1019.3 |
| 20260902001527 | 63 | 77 | 0.0 | 0.0 | 0.00 | 0.45 | 0.45 | 91 | 1019.3 |
| 20260902001024 | 63 | 77 | 0.0 | 0.0 | 0.00 | 0.45 | 0.45 | 91 | 1019.2 |
| 20260902000524 | 63 | 77 | 0.0 | 0.0 | 0.00 | 0.45 | 0.45 | 91 | 1019.1 |
| 20260902000027 | 63 | 77 | 0.0 | 0.0 | 0.00 | 0.45 | 0.45 | 91 | 1018.9 |
| 20260901235524 | 63 | 77 | 0.0 | 0.0 | 0.00 | 0.45 | 0.45 | 91 | 1019.0 |
| 20260901235024 | 63 | 77 | 0.0 | 0.0 | 0.00 | 0.45 | 0.45 | 91 | 1019.0 |
| 20260901234523 | 63 | 77 | 0.0 | 0.0 | 0.00 | 0.45 | 0.45 | 91 | 1019.0 |
| 20260901234024 | 63 | 77 | 0.0 | 0.0 | 0.00 | 0.45 | 0.45 | 91 | 1019.0 |
| 20260901233524 | 64 | 77 | 0.0 | 0.0 | 0.00 | 0.45 | 0.45 | 91 | 1019.1 |
| 20260901233022 | 64 | 77 | 0.0 | 0.0 | 0.00 | 0.45 | 0.45 | 91 | 1019.3 |
| 20260901232524 | 63 | 77 | 0.0 | 0.0 | 0.00 | 0.45 | 0.45 | 91 | 1019.2 |
| 20260901232023 | 63 | 77 | 0.0 | 0.0 | 0.00 | 0.45 | 0.45 | 91 | 1019.2 |
| 20260901231527 | 64 | 77 | 0.0 | 0.0 | 0.00 | 0.45 | 0.45 | 91 | 1019.1 |
| 20260901231026 | 64 | 77 | 0.0 | 0.0 | 0.00 | 0.45 | 0.45 | 91 | 1019.1 |
| 20260901230522 | 64 | 77 | 0.0 | 0.0 | 0.00 | 0.45 | 0.45 | 91 | 1019.1 |
| 20260901230037 | 64 | 77 | 0.0 | 0.0 | 0.00 | 0.45 | 0.45 | 91 | 1019.0 |
| 20260901225523 | 64 | 77 | 0.0 | 0.0 | 0.00 | 0.45 | 0.45 | 91 | 1019.1 |
| 20260901225021 | 64 | 77 | 0.0 | 0.0 | 0.00 | 0.45 | 0.45 | 91 | 1019.1 |
| 20260901224522 | 64 | 77 | 0.0 | 0.0 | 0.00 | 0.45 | 0.45 | 91 | 1019.1 |
| 20260901224021 | 64 | 77 | 0.0 | 1.0 | 0.00 | 0.45 | 0.45 | 91 | 1019.1 |
| 20260901223521 | 64 | 77 | 0.0 | 1.0 | 0.00 | 0.45 | 0.45 | 91 | 1019.0 |
| 20260901223021 | 64 | 77 | 0.0 | 1.0 | 0.00 | 0.45 | 0.45 | 91 | 1019.0 |
| 20260901222520 | 64 | 77 | 0.0 | 1.0 | 0.00 | 0.45 | 0.45 | 91 | 1019.0 |
| 20260901222020 | 64 | 77 | 0.0 | 1.0 | 0.00 | 0.45 | 0.45 | 91 | 1019.0 |
| 20260901221521 | 64 | 77 | 0.0 | 1.0 | 0.00 | 0.45 | 0.45 | 91 | 1019.0 |
| 20260901221022 | 64 | 77 | 0.0 | 3.0 | 0.00 | 0.45 | 0.45 | 91 | 1019.0 |
| 20260901220520 | 64 | 77 | 0.0 | 4.0 | 0.00 | 0.45 | 0.45 | 91 | 1019.0 |
| 20260901220021 | 64 | 77 | 1.0 | 4.0 | 0.00 | 0.45 | 0.45 | 91 | 1019.0 |
| 20260901215522 | 64 | 77 | 1.0 | 4.0 | 0.00 | 0.45 | 0.45 | 91 | 1018.9 |
| 20260901215020 | 65 | 77 | 1.0 | 4.0 | 0.00 | 0.45 | 0.45 | 91 | 1018.9 |
| 20260901214519 | 65 | 77 | 1.0 | 3.0 | 0.00 | 0.45 | 0.45 | 91 | 1018.9 |
| 20260901214019 | 65 | 77 | 0.0 | 3.0 | 0.00 | 0.45 | 0.45 | 91 | 1018.9 |
| 20260901213521 | 65 | 77 | 2.0 | 3.0 | 0.00 | 0.45 | 0.45 | 91 | 1019.0 |
| 20260901213049 | 65 | 77 | 1.0 | 4.0 | 0.00 | 0.45 | 0.45 | 90 | 1019.0 |
| 20260901212522 | 65 | 77 | 1.0 | 4.0 | 0.00 | 0.45 | 0.45 | 91 | 1018.9 |
| 20260901212019 | 65 | 77 | 1.0 | 4.0 | 0.00 | 0.45 | 0.45 | 90 | 1018.8 |
| 20260901211534 | 65 | 77 | 2.0 | 4.0 | 0.00 | 0.45 | 0.45 | 90 | 1018.8 |
| 20260901211020 | 65 | 77 | 1.0 | 5.0 | 0.00 | 0.45 | 0.45 | 90 | 1018.7 |
| 20260901210519 | 65 | 77 | 1.0 | 5.0 | 0.00 | 0.45 | 0.45 | 90 | 1018.6 |
| 20260901210022 | 65 | 77 | 1.0 | 5.0 | 0.00 | 0.45 | 0.45 | 90 | 1018.6 |
| 20260901205519 | 65 | 77 | 2.0 | 4.0 | 0.00 | 0.45 | 0.45 | 90 | 1018.6 |
| 20260901205019 | 65 | 77 | 2.0 | 5.0 | 0.00 | 0.45 | 0.45 | 90 | 1018.6 |
| 20260901204517 | 65 | 78 | 2.0 | 5.0 | 0.00 | 0.45 | 0.45 | 90 | 1018.6 |
| 20260901204017 | 66 | 77 | 0.0 | 4.0 | 0.00 | 0.45 | 0.45 | 90 | 1018.5 |
| 20260901203519 | 66 | 77 | 1.0 | 4.0 | 0.00 | 0.45 | 0.45 | 90 | 1018.5 |
| 20260901203027 | 66 | 77 | 1.0 | 4.0 | 0.00 | 0.45 | 0.45 | 90 | 1018.2 |
| 20260901202513 | 65 | 77 | 2.0 | 5.0 | 0.00 | 0.45 | 0.45 | 90 | 1018.2 |
| 20260901202014 | 65 | 77 | 2.0 | 5.0 | 0.00 | 0.45 | 0.45 | 91 | 1018.3 |
| 20260901201514 | 65 | 77 | 1.0 | 6.0 | 0.00 | 0.45 | 0.45 | 91 | 1018.2 |
| 20260901201015 | 65 | 77 | 3.0 | 6.0 | 0.00 | 0.45 | 0.45 | 91 | 1018.3 |
| 20260901200520 | 65 | 78 | 1.0 | 4.0 | 0.00 | 0.45 | 0.45 | 91 | 1018.2 |
| 20260901200029 | 65 | 78 | 2.0 | 4.0 | 0.00 | 0.45 | 0.45 | 91 | 1018.4 |
| 20260901195513 | 66 | 77 | 0.0 | 4.0 | 0.00 | 0.45 | 0.45 | 91 | 1018.4 |
| 20260901195012 | 65 | 78 | 1.0 | 5.0 | 0.00 | 0.45 | 0.45 | 91 | 1018.3 |
| 20260901194513 | 65 | 77 | 1.0 | 5.0 | 0.00 | 0.45 | 0.45 | 91 | 1018.3 |
| 20260901194012 | 65 | 77 | 2.0 | 4.0 | 0.00 | 0.45 | 0.45 | 91 | 1018.4 |
| 20260901193512 | 65 | 78 | 1.0 | 4.0 | 0.00 | 0.45 | 0.45 | 91 | 1018.3 |
| 20260901193017 | 65 | 79 | 1.0 | 3.0 | 0.00 | 0.45 | 0.45 | 91 | 1018.5 |
| 20260901192511 | 66 | 78 | 0.0 | 4.0 | 0.00 | 0.45 | 0.45 | 92 | 1018.5 |
| 20260901192011 | 65 | 78 | 1.0 | 4.0 | 0.00 | 0.45 | 0.45 | 92 | 1018.5 |
| 20260901191513 | 65 | 79 | 2.0 | 4.0 | 0.00 | 0.45 | 0.45 | 92 | 1018.5 |
| 20260901191010 | 65 | 79 | 1.0 | 5.0 | 0.00 | 0.45 | 0.45 | 92 | 1018.5 |
| 20260901190513 | 65 | 79 | 3.0 | 5.0 | 0.00 | 0.45 | 0.45 | 92 | 1018.4 |
| 20260901190010 | 65 | 79 | 2.0 | 5.0 | 0.00 | 0.45 | 0.45 | 92 | 1018.4 |
| 20260901185511 | 65 | 83 | 2.0 | 6.0 | 0.00 | 0.45 | 0.45 | 92 | 1018.4 |
| 20260901185009 | 65 | 84 | 1.0 | 4.0 | 0.00 | 0.45 | 0.45 | 92 | 1018.4 |
| 20260901184508 | 65 | 85 | 2.0 | 4.0 | 0.00 | 0.45 | 0.45 | 92 | 1018.4 |
| 20260901184008 | 65 | 83 | 1.0 | 4.0 | 0.00 | 0.45 | 0.45 | 92 | 1018.4 |
| 20260901183508 | 65 | 83 | 1.0 | 4.0 | 0.01 | 0.45 | 0.45 | 92 | 1018.4 |
| 20260901183009 | 65 | 84 | 1.0 | 6.0 | 0.01 | 0.45 | 0.45 | 93 | 1018.4 |
| 20260901182507 | 64 | 89 | 0.0 | 6.0 | 0.01 | 0.45 | 0.45 | 92 | 1018.4 |
| 20260901182007 | 64 | 90 | 2.0 | 6.0 | 0.01 | 0.45 | 0.45 | 92 | 1018.3 |
| 20260901181511 | 64 | 81 | 3.0 | 7.0 | 0.01 | 0.45 | 0.45 | 92 | 1018.3 |
| 20260901181007 | 64 | 65 | 3.0 | 7.0 | 0.01 | 0.45 | 0.45 | 92 | 1018.3 |
| 20260901180507 | 64 | 81 | 2.0 | 7.0 | 0.01 | 0.45 | 0.45 | 92 | 1018.2 |
| 20260901180006 | 64 | 75 | 3.0 | 7.0 | 0.01 | 0.45 | 0.45 | 92 | 1018.1 |
| 20260901175505 | 64 | 79 | 2.0 | 8.0 | 0.01 | 0.45 | 0.45 | 92 | 1018.1 |
| 20260901175005 | 64 | 78 | 2.0 | 8.0 | 0.01 | 0.45 | 0.45 | 92 | 1018.0 |
| 20260901174505 | 64 | 86 | 2.0 | 8.0 | 0.01 | 0.45 | 0.45 | 92 | 1017.9 |
| 20260901174007 | 64 | 89 | 3.0 | 8.0 | 0.01 | 0.45 | 0.45 | 92 | 1017.8 |
| 20260901173505 | 64 | 62 | 3.0 | 5.0 | 0.00 | 0.44 | 0.44 | 92 | 1017.8 |
| 20260901173004 | 64 | 88 | 0.0 | 2.0 | 0.00 | 0.44 | 0.44 | 92 | 1017.8 |
| 20260901172504 | 64 | 88 | 0.0 | 6.0 | 0.00 | 0.44 | 0.44 | 93 | 1018.2 |
| 20260901172006 | 63 | 89 | 3.0 | 6.0 | 0.00 | 0.44 | 0.44 | 92 | 1017.8 |
| 20260901171504 | 64 | 85 | 1.0 | 4.0 | 0.00 | 0.44 | 0.44 | 92 | 1018.0 |
| 20260901171003 | 64 | 87 | 2.0 | 4.0 | 0.00 | 0.44 | 0.44 | 92 | 1018.2 |
| 20260901170503 | 64 | 61 | 1.0 | 3.0 | 0.00 | 0.44 | 0.44 | 92 | 1018.2 |
| 20260901170003 | 64 | 62 | 1.0 | 5.0 | 0.00 | 0.44 | 0.44 | 92 | 1018.2 |
| 20260901165502 | 64 | 62 | 1.0 | 5.0 | 0.00 | 0.44 | 0.44 | 92 | 1018.2 |
| 20260901165006 | 64 | 62 | 1.0 | 8.0 | 0.00 | 0.44 | 0.44 | 92 | 1018.2 |
| 20260901164502 | 64 | 62 | 2.0 | 8.0 | 0.00 | 0.44 | 0.44 | 92 | 1018.2 |
| 20260901164001 | 64 | 60 | 0.0 | 3.0 | 0.00 | 0.44 | 0.44 | 92 | 1018.3 |
| 20260901163502 | 64 | 60 | 1.0 | 3.0 | 0.00 | 0.44 | 0.44 | 93 | 1018.3 |
| 20260901163002 | 64 | 61 | 1.0 | 4.0 | 0.00 | 0.44 | 0.44 | 92 | 1018.5 |
| 20260901162501 | 64 | 60 | 1.0 | 4.0 | 0.00 | 0.44 | 0.44 | 92 | 1018.5 |
| 20260901162000 | 63 | 61 | 2.0 | 4.0 | 0.00 | 0.44 | 0.44 | 92 | 1018.5 |
| 20260901161601 | 63 | 60 | 2.0 | 3.0 | 0.00 | 0.44 | 0.44 | 92 | 1018.5 |
| 20260901161501 | 63 | 60 | 1.0 | 3.0 | 0.00 | 0.44 | 0.44 | 92 | 1018.5 |
| 20260901161100 | 63 | 60 | 0.0 | 3.0 | 0.00 | 0.44 | 0.44 | 92 | 1018.5 |
| 20260901160602 | 63 | 60 | 1.0 | 3.0 | 0.00 | 0.44 | 0.44 | 92 | 1018.5 |
| 20260901160103 | 63 | 60 | 0.0 | 3.0 | 0.00 | 0.44 | 0.44 | 92 | 1018.5 |
| 20260901155600 | 63 | 60 | 1.0 | 3.0 | 0.00 | 0.44 | 0.44 | 92 | 1018.4 |
| 20260901155059 | 62 | 61 | 0.0 | 3.0 | 0.00 | 0.44 | 0.44 | 92 | 1018.3 |
| 20260901154558 | 62 | 60 | 0.0 | 6.0 | 0.00 | 0.44 | 0.44 | 92 | 1018.2 |
| 20260901154058 | 62 | 60 | 2.0 | 6.0 | 0.00 | 0.44 | 0.44 | 92 | 1018.2 |
| 20260901153558 | 62 | 62 | 2.0 | 6.0 | 0.00 | 0.44 | 0.44 | 92 | 1018.2 |
| 20260901153107 | 62 | 62 | 1.0 | 4.0 | 0.00 | 0.44 | 0.44 | 92 | 1018.2 |
| 20260901152557 | 62 | 62 | 1.0 | 3.0 | 0.00 | 0.44 | 0.44 | 93 | 1018.2 |
| 20260901152057 | 62 | 62 | 1.0 | 3.0 | 0.00 | 0.44 | 0.44 | 92 | 1018.3 |
| 20260901151557 | 62 | 62 | 1.0 | 3.0 | 0.00 | 0.44 | 0.44 | 92 | 1018.4 |
| 20260901151057 | 62 | 63 | 0.0 | 4.0 | 0.01 | 0.44 | 0.44 | 92 | 1018.3 |
| 20260901150557 | 62 | 63 | 1.0 | 4.0 | 0.01 | 0.44 | 0.44 | 93 | 1018.3 |
| 20260901150057 | 62 | 63 | 1.0 | 6.0 | 0.01 | 0.44 | 0.44 | 93 | 1018.2 |
| 20260901145558 | 61 | 64 | 3.0 | 6.0 | 0.02 | 0.44 | 0.44 | 92 | 1018.2 |
| 20260901145055 | 61 | 68 | 1.0 | 5.0 | 0.02 | 0.44 | 0.44 | 92 | 1018.2 |
| 20260901144555 | 61 | 70 | 2.0 | 5.0 | 0.03 | 0.44 | 0.44 | 92 | 1018.2 |
| 20260901144054 | 61 | 73 | 1.0 | 5.0 | 0.04 | 0.44 | 0.44 | 92 | 1018.2 |
| 20260901143555 | 61 | 57 | 1.0 | 5.0 | 0.05 | 0.44 | 0.44 | 92 | 1018.3 |
| 20260901143055 | 61 | 56 | 1.0 | 5.0 | 0.06 | 0.44 | 0.44 | 92 | 1018.3 |
| 20260901142554 | 61 | 59 | 0.0 | 4.0 | 0.08 | 0.44 | 0.44 | 92 | 1018.2 |
| 20260901142053 | 61 | 61 | 0.0 | 5.0 | 0.09 | 0.44 | 0.44 | 92 | 1018.0 |
| 20260901141558 | 60 | 61 | 1.0 | 5.0 | 0.11 | 0.44 | 0.44 | 92 | 1017.9 |
| 20260901141051 | 60 | 45 | 1.0 | 3.0 | 0.12 | 0.43 | 0.43 | 92 | 1018.1 |
| 20260901140549 | 60 | 45 | 1.0 | 3.0 | 0.13 | 0.43 | 0.43 | 92 | 1018.1 |
| 20260901140051 | 60 | 45 | 1.0 | 4.0 | 0.15 | 0.43 | 0.43 | 92 | 1018.1 |
| 20260901135549 | 60 | 45 | 2.0 | 4.0 | 0.17 | 0.42 | 0.42 | 92 | 1018.0 |
| 20260901135047 | 60 | 45 | 1.0 | 2.0 | 0.20 | 0.42 | 0.42 | 92 | 1018.3 |
| 20260901134545 | 60 | 45 | 0.0 | 4.0 | 0.22 | 0.41 | 0.41 | 91 | 1018.4 |
| 20260901134046 | 60 | 45 | 1.0 | 4.0 | 0.24 | 0.40 | 0.40 | 91 | 1018.4 |
| 20260901133544 | 60 | 46 | 0.0 | 2.0 | 0.25 | 0.39 | 0.39 | 91 | 1018.5 |
| 20260901133043 | 60 | 45 | 0.0 | 2.0 | 0.26 | 0.38 | 0.38 | 91 | 1018.5 |
| 20260901132539 | 59 | 45 | 0.0 | 3.0 | 0.26 | 0.36 | 0.36 | 91 | 1018.6 |
| 20260901132038 | 59 | 45 | 1.0 | 3.0 | 0.27 | 0.35 | 0.35 | 91 | 1018.7 |
| 20260901131538 | 59 | 46 | 1.0 | 4.0 | 0.28 | 0.33 | 0.33 | 91 | 1018.9 |
| 20260901131039 | 60 | 45 | 0.0 | 3.0 | 0.30 | 0.31 | 0.31 | 91 | 1018.9 |
| 20260901130537 | 60 | 44 | 0.0 | 3.0 | 0.30 | 0.30 | 0.30 | 90 | 1018.9 |
| 20260901130036 | 60 | 44 | 0.0 | 4.0 | 0.28 | 0.28 | 0.28 | 90 | 1018.9 |
| 20260901125538 | 60 | 43 | 1.0 | 4.0 | 0.25 | 0.25 | 0.25 | 90 | 1018.9 |
| 20260901125035 | 60 | 43 | 0.0 | 3.0 | 0.21 | 0.21 | 0.21 | 90 | 1019.0 |
| 20260901124535 | 61 | 50 | 0.0 | 3.0 | 0.19 | 0.19 | 0.19 | 90 | 1019.0 |
| 20260901124032 | 61 | 50 | 0.0 | 3.0 | 0.16 | 0.16 | 0.16 | 90 | 1019.0 |
| 20260901123531 | 61 | 50 | 0.0 | 6.0 | 0.14 | 0.14 | 0.14 | 89 | 1019.0 |
| 20260901123031 | 62 | 50 | 1.0 | 6.0 | 0.12 | 0.12 | 0.12 | 89 | 1019.1 |
| 20260901122530 | 62 | 94 | 0.0 | 2.0 | 0.10 | 0.10 | 0.10 | 89 | 1019.1 |
| 20260901122029 | 62 | 94 | 0.0 | 2.0 | 0.08 | 0.08 | 0.08 | 89 | 1019.0 |
| 20260901121535 | 62 | 95 | 1.0 | 2.0 | 0.04 | 0.04 | 0.04 | 88 | 1018.9 |
| 20260901121028 | 62 | 95 | 0.0 | 1.0 | 0.01 | 0.01 | 0.01 | 88 | 1018.9 |
| 20260901120527 | 62 | 95 | 0.0 | 1.0 | 0.00 | 0.00 | 0.00 | 88 | 1018.9 |
| 20260901120038 | 62 | 93 | 0.0 | 1.0 | 0.00 | 0.00 | 0.00 | 88 | 1018.6 |
| 20260901115529 | 62 | 95 | 0.0 | 2.0 | 0.00 | 0.00 | 0.00 | 88 | 1018.6 |
| 20260901115026 | 62 | 94 | 0.0 | 3.0 | 0.00 | 0.00 | 0.00 | 88 | 1018.6 |
| 20260901114525 | 62 | 94 | 2.0 | 3.0 | 0.00 | 0.00 | 0.00 | 87 | 1018.6 |
| 20260901114026 | 62 | 94 | 0.0 | 4.0 | 0.00 | 0.00 | 0.00 | 87 | 1018.6 |
| 20260901113524 | 62 | 94 | 2.0 | 4.0 | 0.00 | 0.00 | 0.00 | 87 | 1018.5 |
| 20260901113023 | 62 | 188 | 1.0 | 2.0 | 0.00 | 0.00 | 0.00 | 88 | 1018.5 |
| 20260901112522 | 62 | 191 | 0.0 | 0.0 | 0.00 | 0.00 | 0.00 | 88 | 1018.5 |
| 20260901112022 | 62 | 191 | 0.0 | 2.0 | 0.00 | 0.00 | 0.00 | 87 | 1018.4 |
| 20260901111522 | 63 | 191 | 0.0 | 2.0 | 0.00 | 0.00 | 0.00 | 87 | 1018.4 |
| 20260901111020 | 63 | 193 | 0.0 | 1.0 | 0.00 | 0.00 | 0.00 | 87 | 1018.4 |
| 20260901110520 | 63 | 193 | 0.0 | 1.0 | 0.00 | 0.00 | 0.00 | 87 | 1018.4 |
| 20260901110023 | 63 | 193 | 0.0 | 0.0 | 0.00 | 0.00 | 0.00 | 87 | 1018.3 |
| 20260901105520 | 63 | 193 | 0.0 | 0.0 | 0.00 | 0.00 | 0.00 | 88 | 1018.4 |
| 20260901105019 | 63 | 193 | 0.0 | 0.0 | 0.00 | 0.00 | 0.00 | 88 | 1018.3 |
| 20260901104522 | 63 | 193 | 0.0 | 1.0 | 0.00 | 0.00 | 0.00 | 88 | 1018.2 |
| 20260901104018 | 63 | 193 | 0.0 | 2.0 | 0.00 | 0.00 | 0.00 | 88 | 1018.1 |
| 20260901103518 | 63 | 193 | 0.0 | 3.0 | 0.00 | 0.00 | 0.00 | 88 | 1018.1 |
| 20260901103017 | 64 | 193 | 0.0 | 3.0 | 0.00 | 0.00 | 0.00 | 88 | 1018.1 |
| 20260901102518 | 64 | 202 | 0.0 | 0.0 | 0.00 | 0.00 | 0.00 | 88 | 1017.9 |
| 20260901102019 | 64 | 202 | 0.0 | 0.0 | 0.00 | 0.00 | 0.00 | 88 | 1017.9 |
| 20260901101518 | 64 | 203 | 0.0 | 0.0 | 0.00 | 0.00 | 0.00 | 88 | 1017.7 |
| 20260901101017 | 64 | 202 | 0.0 | 0.0 | 0.00 | 0.00 | 0.00 | 88 | 1017.6 |
| 20260901100520 | 64 | 203 | 0.0 | 0.0 | 0.00 | 0.00 | 0.00 | 88 | 1017.6 |
| 20260901100017 | 64 | 203 | 0.0 | 0.0 | 0.00 | 0.00 | 0.00 | 88 | 1017.6 |
| 20260901095517 | 64 | 202 | 0.0 | 0.0 | 0.00 | 0.00 | 0.00 | 88 | 1017.5 |
| 20260901095020 | 64 | 203 | 0.0 | 0.0 | 0.00 | 0.00 | 0.00 | 88 | 1017.4 |
| 20260901094520 | 64 | 203 | 0.0 | 0.0 | 0.00 | 0.00 | 0.00 | 88 | 1017.4 |
| 20260901094017 | 64 | 203 | 0.0 | 0.0 | 0.00 | 0.00 | 0.00 | 88 | 1017.4 |
| 20260901093519 | 64 | 203 | 0.0 | 0.0 | 0.00 | 0.00 | 0.00 | 88 | 1017.4 |
| 20260901093016 | 64 | 202 | 0.0 | 0.0 | 0.00 | 0.00 | 0.00 | 87 | 1017.3 |